COMS 1

Last updated on Tue Sep 16 2025 00:02:22 GMT+0000 (Coordinated Universal Time)

1 36744U 10032A 25258.56359872 -.00000361 00000+0 00000+0 0 9996 2 36744 4.1193 78.8822 0000832 121.2835 125.6214 1.00268858 48331
UTC large
Height (km)
Speed (km/s)
/
Latitude / Longitude
Inclination (degrees)
Orbital Period (minutes)
Azimuth
Elevation
Range (km)
Doppler Factor

Next 0 passes for location: London (51.5072 / 0.1276)

Sorry there are no passes over London.